• In Portugal
  • List of Countries
  • For 7 days
  • Water Temperature
  • Satellite Maps
  • Weather Map
  • Weather Widgets
  • user-avatar
    Login

    Hourly Weather Grzedy

    Today, 18 July, Wednesday

    Time Temperature Precipitation Wind Pressure Humidity
    00:00 +15°C° 0.1 mm 4 mps 713 mmHg 94%
    01:00 +15°C° 0 mm 4 mps 713 mmHg 94%
    02:00 +15°C° 0.1 mm 4 mps 712 mmHg 94%
    03:00 +15°C° 0.1 mm 4 mps 712 mmHg 94%
    04:00 +15°C° 0.1 mm 5 mps 712 mmHg 93%
    05:00 +15°C° 0.4 mm 5 mps 713 mmHg 93%
    06:00 +15°C° 0.4 mm 6 mps 713 mmHg 92%
    07:00 +16°C° 0 mm 5 mps 713 mmHg 91%
    08:00 +16°C° 0.5 mm 5 mps 714 mmHg 91%
    09:00 +16°C° 0.5 mm 6 mps 714 mmHg 90%
    10:00 +16°C° 0.5 mm 6 mps 714 mmHg 89%
    11:00 +17°C° 0.3 mm 6 mps 714 mmHg 88%
    12:00 +17°C° 0.3 mm 6 mps 715 mmHg 86%
    13:00 +17°C° 0.3 mm 6 mps 715 mmHg 85%
    14:00 +19°C° 0.1 mm 6 mps 715 mmHg 81%
    15:00 +20°C° 0.1 mm 6 mps 715 mmHg 77%
    16:00 +21°C° 0.1 mm 6 mps 716 mmHg 72%
    17:00 +20°C° 0.1 mm 5 mps 716 mmHg 75%
    18:00 +19°C° 0.1 mm 4 mps 716 mmHg 78%
    19:00 +19°C° 0.1 mm 3 mps 716 mmHg 81%
    20:00 +18°C° 0 mm 3 mps 716 mmHg 84%
    21:00 +17°C° 0 mm 3 mps 716 mmHg 87%
    22:00 +16°C° 0 mm 2 mps 716 mmHg 90%
    23:00 +16°C° 0 mm 2 mps 716 mmHg 91%

    Tomorrow, 19 July, Thursday

    Time Temperature Precipitation Wind Pressure Humidity
    00:00 +16°C° 0 mm 3 mps 716 mmHg 92%
    01:00 +14°C° 0 mm 3 mps 716 mmHg 94%
    02:00 +14°C° 0 mm 3 mps 716 mmHg 94%
    03:00 +14°C° 0 mm 3 mps 716 mmHg 95%
    04:00 +14°C° 0 mm 3 mps 716 mmHg 95%
    05:00 +15°C° 0 mm 4 mps 716 mmHg 92%
    06:00 +17°C° 0 mm 4 mps 717 mmHg 89%
    07:00 +16°C° 0 mm 5 mps 717 mmHg 85%
    08:00 +17°C° 0.1 mm 5 mps 717 mmHg 83%
    09:00 +17°C° 0.1 mm 5 mps 717 mmHg 80%
    10:00 +19°C° 0.1 mm 5 mps 717 mmHg 78%
    11:00 +20°C° 0.2 mm 5 mps 717 mmHg 76%
    12:00 +20°C° 0.2 mm 5 mps 717 mmHg 75%
    13:00 +21°C° 0.2 mm 5 mps 717 mmHg 73%
    14:00 +21°C° 0.2 mm 5 mps 717 mmHg 73%
    15:00 +21°C° 0.2 mm 5 mps 717 mmHg 72%
    16:00 +21°C° 0.2 mm 5 mps 717 mmHg 72%
    17:00 +20°C° 0 mm 5 mps 717 mmHg 74%
    18:00 +20°C° 0 mm 4 mps 717 mmHg 77%
    19:00 +19°C° 0 mm 3 mps 717 mmHg 80%
    20:00 +18°C° 0 mm 3 mps 717 mmHg 84%
    21:00 +17°C° 0 mm 3 mps 717 mmHg 88%
    22:00 +15°C° 0 mm 2 mps 718 mmHg 92%
    23:00 +15°C° 0 mm 2 mps 718 mmHg 92%

    Day after tomorrow, 20 July, Friday

    Time Temperature Precipitation Wind Pressure Humidity
    00:00 +15°C° 0 mm 2 mps 718 mmHg 92%
    01:00 +15°C° 0 mm 2 mps 717 mmHg 92%
    02:00 +15°C° 0 mm 2 mps 717 mmHg 92%
    03:00 +15°C° 0 mm 2 mps 717 mmHg 93%
    04:00 +14°C° 0 mm 2 mps 717 mmHg 93%
    05:00 +15°C° 0 mm 2 mps 717 mmHg 90%
    06:00 +16°C° 0 mm 2 mps 717 mmHg 86%
    07:00 +17°C° 0 mm 2 mps 718 mmHg 83%
    08:00 +18°C° 0 mm 2 mps 718 mmHg 76%
    09:00 +19°C° 0 mm 2 mps 718 mmHg 70%
    10:00 +20°C° 0 mm 2 mps 718 mmHg 63%
    11:00 +23°C° 0 mm 2 mps 718 mmHg 59%
    12:00 +24°C° 0 mm 2 mps 718 mmHg 55%
    13:00 +25°C° 0 mm 2 mps 718 mmHg 50%
    14:00 +25°C° 0 mm 2 mps 717 mmHg 49%
    15:00 +25°C° 0 mm 2 mps 717 mmHg 47%
    16:00 +25°C° 0 mm 2 mps 717 mmHg 46%
    17:00 +24°C° 0 mm 2 mps 717 mmHg 51%
    18:00 +23°C° 0 mm 1 mps 716 mmHg 56%
    19:00 +21°C° 0 mm 1 mps 716 mmHg 61%
    20:00 +20°C° 0 mm 1 mps 716 mmHg 64%
    21:00 +18°C° 0 mm 1 mps 716 mmHg 66%
    22:00 +16°C° 0 mm 1 mps 716 mmHg 69%
    23:00 +15°C° 0 mm 1 mps 715 mmHg 70%

    21 July, Saturday

    Time Temperature Precipitation Wind Pressure Humidity
    00:00 +15°C° 0 mm 1 mps 715 mmHg 71%
    01:00 +14°C° 0 mm 1 mps 715 mmHg 72%
    02:00 +14°C° 0 mm 1 mps 715 mmHg 74%
    03:00 +14°C° 0 mm 1 mps 715 mmHg 75%
    04:00 +14°C° 0 mm 1 mps 715 mmHg 77%
    05:00 +16°C° 0 mm 1 mps 715 mmHg 74%
    06:00 +18°C° 0 mm 1 mps 715 mmHg 71%
    07:00 +20°C° 0 mm 1 mps 715 mmHg 67%
    08:00 +22°C° 0 mm 1 mps 715 mmHg 62%
    09:00 +23°C° 0 mm 1 mps 715 mmHg 57%
    10:00 +25°C° 0 mm 1 mps 715 mmHg 52%
    11:00 +26°C° 0.1 mm 1 mps 715 mmHg 50%
    12:00 +26°C° 0.1 mm 1 mps 715 mmHg 49%
    13:00 +27°C° 0.1 mm 1 mps 715 mmHg 47%
    14:00 +26°C° 0.3 mm 1 mps 714 mmHg 50%
    15:00 +26°C° 0.3 mm 1 mps 714 mmHg 53%
    16:00 +25°C° 0.3 mm 1 mps 714 mmHg 56%
    17:00 +24°C° 0.4 mm 1 mps 714 mmHg 63%
    18:00 +23°C° 0.4 mm 1 mps 713 mmHg 70%
    19:00 +21°C° 0.4 mm 1 mps 713 mmHg 77%
    20:00 +20°C° 0.2 mm 1 mps 713 mmHg 79%
    21:00 +19°C° 0.2 mm 1 mps 713 mmHg 82%
    22:00 +18°C° 0.2 mm 1 mps 712 mmHg 84%
    23:00 +18°C° 0.1 mm 1 mps 712 mmHg 85%

    22 July, Sunday

    Time Temperature Precipitation Wind Pressure Humidity
    00:00 +18°C° 0.1 mm 1 mps 712 mmHg 86%
    01:00 +18°C° 0.1 mm 1 mps 712 mmHg 87%
    02:00 +15°C° 0.3 mm 0 mps 712 mmHg 88%
    03:00 +15°C° 0.3 mm 0 mps 712 mmHg 90%
    04:00 +15°C° 0.3 mm 0 mps 712 mmHg 91%
    05:00 +16°C° 1.1 mm 1 mps 712 mmHg 91%
    06:00 +18°C° 1.1 mm 1 mps 712 mmHg 91%
    07:00 +18°C° 1.1 mm 1 mps 712 mmHg 91%
    08:00 +18°C° 1.3 mm 1 mps 713 mmHg 91%
    09:00 +18°C° 1.3 mm 1 mps 713 mmHg 91%
    10:00 +18°C° 1.3 mm 1 mps 713 mmHg 91%
    11:00 +17°C° 0.7 mm 2 mps 713 mmHg 90%
    12:00 +18°C° 0.7 mm 2 mps 713 mmHg 90%
    13:00 +18°C° 0.7 mm 2 mps 713 mmHg 90%
    14:00 +17°C° 0.8 mm 2 mps 714 mmHg 91%
    15:00 +17°C° 0.8 mm 3 mps 714 mmHg 92%
    16:00 +16°C° 0.8 mm 3 mps 714 mmHg 93%
    17:00 +16°C° 0.7 mm 3 mps 714 mmHg 93%
    18:00 +14°C° 0.7 mm 3 mps 714 mmHg 94%
    19:00 +14°C° 0.7 mm 3 mps 715 mmHg 94%
    20:00 +13°C° 0.1 mm 3 mps 715 mmHg 94%
    21:00 +13°C° 0.1 mm 3 mps 715 mmHg 93%
    22:00 +13°C° 0.1 mm 2 mps 716 mmHg 93%
    23:00 +13°C° 0 mm 2 mps 716 mmHg 92%

    23 July, Monday

    Time Temperature Precipitation Wind Pressure Humidity
    00:00 +12°C° 0 mm 3 mps 716 mmHg 91%
    01:00 +12°C° 0 mm 3 mps 716 mmHg 90%
    02:00 +13°C° 0 mm 2 mps 716 mmHg 90%
    03:00 +13°C° 0 mm 2 mps 716 mmHg 91%
    04:00 +13°C° 0 mm 2 mps 717 mmHg 91%
    05:00 +14°C° 0 mm 2 mps 717 mmHg 89%
    06:00 +15°C° 0 mm 2 mps 717 mmHg 88%
    07:00 +16°C° 0 mm 2 mps 718 mmHg 86%
    08:00 +17°C° 0 mm 3 mps 718 mmHg 83%
    09:00 +17°C° 0 mm 3 mps 718 mmHg 80%
    10:00 +18°C° 0 mm 3 mps 718 mmHg 77%
    11:00 +20°C° 0 mm 3 mps 718 mmHg 71%
    12:00 +21°C° 0 mm 3 mps 718 mmHg 65%
    13:00 +22°C° 0 mm 3 mps 718 mmHg 59%
    14:00 +22°C° 0.1 mm 3 mps 718 mmHg 58%
    15:00 +23°C° 0.1 mm 4 mps 718 mmHg 57%
    16:00 +23°C° 0.1 mm 4 mps 718 mmHg 56%
    17:00 +22°C° 0 mm 3 mps 718 mmHg 61%
    18:00 +21°C° 0 mm 2 mps 718 mmHg 66%
    19:00 +19°C° 0 mm 2 mps 718 mmHg 71%
    20:00 +18°C° 0 mm 2 mps 718 mmHg 75%
    21:00 +18°C° 0 mm 1 mps 718 mmHg 78%
    22:00 +15°C° 0 mm 1 mps 718 mmHg 81%
    23:00 +15°C° 0 mm 1 mps 718 mmHg 82%
    Show more